Terug naar catalogus

STARLINK-38123

ActiefCommunicatieVLEO
NORAD 100003·PAYLOAD·🇺🇸 United States

Gelanceerd Jul 14, 2026 vanaf Vandenberg Space Force Base

Loading…

Volgende Passages (komende 24 uur)

TLE

VersSource: Space-Track

Epoch: Sep 14, 2026, 20:05 UTC

1 A0003U 26160C   26257.83733551  .00269758  00000-0  15622-2 0  9990
2 A0003  70.0027 210.8035 0001777 268.2356  91.8641 15.77658450 11104

Volg STARLINK-38123 in realtime met AllMySat

Download on the App Store